Ada, OK

9:05 PM CST on December 10, 2019 (GMT -0600)
Ada Municipal

Weather History for KADH - November, 2019

Change the Weather History Date:

Tuesday, November 19, 2019

  Actual Average Record
Temperature  
Mean Temperature 66 °F -  
Max Temperature 75 °F 63 °F 82 °F (1950)
Min Temperature 55 °F 42 °F 20 °F (1937)
Cooling Degree Days 1    
Growing Degree Days 16 (Base 50)    
Moisture  
Dew Point 40 °F    
Average Humidity 40    
Maximum Humidity 58    
Minimum Humidity 27    
Precipitation  
Precipitation 0.00 in - - ()
Sea Level Pressure  
Sea Level Pressure 29.92 in    
Wind  
Wind Speed 7 mph ()    
Max Wind Speed 12 mph    
Max Gust Speed -    
Visibility 10.0 miles    
Events      
Averages and records for this station are not official NWS values.
T = Trace of Precipitation, MM = Missing Value Source: Averaged Metar Reports

Daily Weather History Graph

Daily Weather History Graph

Search for Another Location

Airport or City:

Astronomy

Nov. 19, 2019 Rise Set
Actual Time 7:04 AM CST 5:19 PM CST
Civil Twilight 6:37 AM CST 5:46 PM CST
Nautical Twilight 6:06 AM CST 6:17 PM CST
Astronomical Twilight 5:36 AM CST 6:47 PM CST
Moon No Moon Rise 1:17 PM CST (11/19)
Length of Visible Light 11h 09m
Length of Day
10h 14m
Waning Gibbous, 51% of the Moon is Illuminated
Nov 19
Waning Gibbous
Nov 19
Last Quarter
Nov 26
New
Dec 4
First Quarter
Dec 11
Full

Hourly Weather History & Observations

Time (CST) Temp. Dew Point Humidity Pressure Visibility Wind Dir Wind Speed Gust Speed Precip Events Conditions
11:55 AM - - N/A% 29.98 in - North 6.9 mph - N/A   Unknown
12:15 PM - - N/A% 29.96 in - SE 8.1 mph - N/A   Unknown
12:35 PM 71.6 °F 37.4 °F 29% 29.95 in 10.0 mi NNE 6.9 mph - N/A   Clear
12:55 PM 71.6 °F 37.4 °F 29% 29.95 in 10.0 mi NNE 6.9 mph - N/A   Clear
1:15 PM 73.4 °F 37.4 °F 27% 29.94 in 10.0 mi NNE 8.1 mph - N/A   Clear
1:55 PM 73.4 °F 37.4 °F 27% 29.93 in 10.0 mi NNW 8.1 mph - N/A   Clear
2:15 PM 73.4 °F 37.4 °F 27% 29.92 in 10.0 mi NNW 8.1 mph - N/A   Clear
2:35 PM 73.4 °F 39.2 °F 29% 29.92 in 10.0 mi NNW 9.2 mph - N/A   Clear
2:55 PM 75.2 °F 39.2 °F 27% 29.92 in 10.0 mi NNW 11.5 mph - N/A   Clear
3:15 PM 73.4 °F 39.2 °F 29% 29.91 in 10.0 mi NNW 8.1 mph - N/A   Clear
3:35 PM 73.4 °F 39.2 °F 29% 29.91 in 10.0 mi NNW 9.2 mph - N/A   Clear
3:55 PM 73.4 °F 41.0 °F 31% 29.91 in 10.0 mi NNW 8.1 mph - N/A   Clear
4:15 PM 73.4 °F 41.0 °F 31% 29.90 in 10.0 mi NNW 8.1 mph - N/A   Clear
4:50 PM 69.8 °F 41.0 °F 35% 29.90 in 10.0 mi NNW 6.9 mph - N/A   Clear
5:15 PM 68.0 °F 41.0 °F 37% 29.90 in 10.0 mi NNW 5.8 mph - N/A   Clear
5:35 PM 64.4 °F 41.0 °F 42% 29.90 in 10.0 mi NNW 5.8 mph - N/A   Clear
5:55 PM 64.4 °F 41.0 °F 42% 29.90 in 10.0 mi NNW 5.8 mph - N/A   Clear
6:15 PM 62.6 °F 41.0 °F 45% 29.90 in 10.0 mi NNW 5.8 mph - N/A   Clear
6:55 PM 62.6 °F 41.0 °F 45% 29.91 in 10.0 mi NNW 6.9 mph - N/A   Clear
7:35 PM 60.8 °F 41.0 °F 48% 29.91 in 10.0 mi NE 6.9 mph - N/A   Clear
7:55 PM 62.6 °F 41.0 °F 45% 29.91 in 10.0 mi NE 8.1 mph - N/A   Clear
8:15 PM 60.8 °F 41.0 °F 48% 29.91 in 10.0 mi NE 8.1 mph - N/A   Clear
8:35 PM 60.8 °F 41.0 °F 48% 29.92 in 10.0 mi NE 6.9 mph - N/A   Clear
9:15 PM 60.8 °F 41.0 °F 48% 29.92 in 10.0 mi NE 8.1 mph - N/A   Clear
9:35 PM 60.8 °F 41.0 °F 48% 29.93 in 10.0 mi NE 11.5 mph - N/A   Clear
9:55 PM 60.8 °F 41.0 °F 48% 29.93 in 10.0 mi NE 10.4 mph - N/A   Clear
10:15 PM 60.8 °F 41.0 °F 48% 29.93 in 10.0 mi NE 10.4 mph - N/A   Clear
10:35 PM 59.0 °F 41.0 °F 51% 29.93 in 10.0 mi NE 8.1 mph - N/A   Clear
10:55 PM 59.0 °F 41.0 °F 51% 29.93 in 10.0 mi NE 9.2 mph - N/A   Clear
11:15 PM 59.0 °F 41.0 °F 51% 29.93 in 10.0 mi NE 10.4 mph - N/A   Clear
11:35 PM 57.2 °F 41.0 °F 55% 29.93 in 10.0 mi NE 9.2 mph - N/A   Clear
11:55 PM 55.4 °F 41.0 °F 58% 29.93 in 10.0 mi NE 6.9 mph - N/A   Clear